QPS-SAR-8 (AMATERU-IV) (60542 NORAD) Tracking and Keplerian Element Data

This shows tracking and keplerian element data for the satellite.

Feedback or suggestion? Click here.




ElementValue
Catalog60542
NameQPS-SAR-8 (AMATERU-IV)
Epoch Orbit849
Epoch Day286.80611338
Epoch Year2024
RAAN1.3866
Inclination97.742
Eccentricity0.0003282
Argument of Perigee334.141
Mean Anonmoly25.9646
Mean Motion14.93631441
Decay Rate0.00014972
L11 60542U 24149CC 24286.80611338 .00014972 00000+0 14205-2 0 9995
L22 60542 97.7420 1.3866 0003282 334.1410 25.9646 14.93631441 8492



Live tracking and technical data element details for QPS-SAR-8 (AMATERU-IV) (NORAD 60542). QPS-SAR-8 (AMATERU-IV) can be tracked NOW for your location showing map with azimuth and elevation plus other details from your city location.







IsCatalogInMostPopularTable: catalog: 60542, numindb: 5
Update: records affected: 1



GetName: 60542 QPS-SAR-8 (AMATERU-IV)

Hit Count: updated at: Wed, 04 Dec 2024 18:00:31 GMT